Location: ?????????
(53.2086°N, 54.0693°E)
Time: 12:46:42
(UTC+00:00)

Cosmos 1980 - Pass Details

Date: 08 December 2019
Orbit: 838 x 848 km, 71.0° (Epoch: 19 January)

Event Time Altitude Azimuth Distance (km) Brightness Sun altitude
Rises 15:08:46 0° 219° (SW) 3,382 7.4 -25.9°
Reaches altitude 10° 15:11:14 10° 222° (SW) 2,452 6.7 -26.2°
Maximum altitude 15:16:50 67° 305° (NW) 911 3.9 -27.1°
Enters shadow 15:18:12 50° 5° (N) 1,069 4.1 -27.3°
